Regional Weather Roundup
Issued by NWS

Current Version | Previous Version | Text Only | Print | Product List | Glossary On
Versions: 1 2 3 4 5 6 7 8 9 10 11 12 13 14 15 16 17 18 19 20 21 22 23 24 25 26 27 28 29 30 31 32 33 34 35 36 37 38 39 40 41 42 43 44 45 46 47 48 49 50
000
ASUS43 KLMK 252110
RWRKY
KENTUCKY REGIONAL WEATHER ROUNDUP
NATIONAL WEATHER SERVICE LOUISVILLE KY
400 PM EST THU DEC 25 2014

NOTE "FAIR" INDICATES FEW OR NO CLOUDS BELOW 12,000 FEET
WITH NO SIGNIFICANT WEATHER AND/OR OBSTRUCTIONS TO VISIBILITY.

KYZ001>023-026-027-061>063-070>075-252200-
WESTERN AND SOUTH CENTRAL KENTUCKY

CITY           SKY/WX    TMP DP  RH WIND       PRES   REMARKS
PADUCAH        SUNNY     50  33  52 S8G17     30.11R
HENDERSON      SUNNY     48  32  53 S13       30.11S
OWENSBORO      SUNNY     49  36  61 SW14      30.13F
HOPKINSVILLE   SUNNY     50  33  53 SW7       30.15R
BOWLING GREEN  SUNNY     47  33  58 S8        30.17R
GLASGOW        SUNNY     46  33  60 S5        30.17R
$$

KYZ024-025-028>034-038-045-046-053-252200-
NORTH CENTRAL KENTUCKY

CITY           SKY/WX    TMP DP  RH WIND       PRES   REMARKS
LOUISVILLE/SDF PTSUNNY   46  32  58 S10       30.15R
LOUISVILLE/LOU MOSUNNY   45  32  60 S8        30.15S
FORT KNOX      PTSUNNY   44  33  66 S10       30.14S
$$

KYZ035>037-039>044-047>052-055>060-089>105-252200-
NORTHEAST KENTUCKY

CITY           SKY/WX    TMP DP  RH WIND       PRES   REMARKS
LEXINGTON      CLOUDY    41  33  73 SW10      30.16R
COVINGTON      CLOUDY    41  30  65 S9        30.13R
FRANKFORT      CLOUDY    42  32  67 SW12      30.15R
$$

KYZ054-064>069-076>088-106>120-252200-
SOUTHEAST KENTUCKY

CITY           SKY/WX    TMP DP  RH WIND       PRES   REMARKS
JACKSON        PTSUNNY   43  30  60 CALM      30.16R
LONDON         MOSUNNY   44  29  55 SW5       30.16S
SOMERSET       PTSUNNY   43  32  65 SW6       30.19R
MIDDLESBORO    SUNNY     47  33  57 S5        30.17S
MONTICELLO     CLEAR     46  34  63 SW6       30.20S
$$



USA.gov is the U.S. government's official web portal to all federal, state and local government web resources and services.